When you browse on this site, cookies collect data to enhance your experience and personalize the content and advertising you see.
Visit our Privacy Policy to learn more. By continuing to use the site, you agree to this use of cookies and data.

Hourly Weather Lambaréné

Today, 14 August, Friday

Time Temperature Precipitation Wind Pressure Humidity
00:00 +26°C° 0 mm 2 mps 754 mmHg 82%
01:00 +26°C° 0 mm 2 mps 754 mmHg 88%
02:00 +26°C° 0 mm 2 mps 754 mmHg 87%
03:00 +26°C° 0 mm 2 mps 753 mmHg 85%
04:00 +26°C° 0 mm 2 mps 753 mmHg 84%
05:00 +26°C° 0 mm 2 mps 753 mmHg 84%
06:00 +26°C° 0 mm 2 mps 753 mmHg 84%
07:00 +26°C° 0 mm 2 mps 754 mmHg 83%
08:00 +28°C° 0 mm 2 mps 754 mmHg 75%
09:00 +29°C° 0 mm 2 mps 754 mmHg 66%
10:00 +31°C° 0 mm 2 mps 754 mmHg 58%
11:00 +32°C° 0 mm 2 mps 754 mmHg 54%
12:00 +34°C° 0 mm 2 mps 753 mmHg 50%
13:00 +35°C° 0 mm 2 mps 752 mmHg 46%
14:00 +35°C° 0 mm 2 mps 752 mmHg 46%
15:00 +35°C° 0 mm 2 mps 751 mmHg 46%
16:00 +35°C° 0 mm 2 mps 750 mmHg 46%
17:00 +34°C° 0 mm 3 mps 751 mmHg 51%
18:00 +31°C° 0 mm 3 mps 751 mmHg 56%
19:00 +30°C° 0 mm 3 mps 752 mmHg 60%
20:00 +29°C° 0 mm 3 mps 752 mmHg 65%
21:00 +28°C° 0 mm 3 mps 753 mmHg 70%
22:00 +27°C° 0 mm 3 mps 754 mmHg 74%
23:00 +26°C° 0 mm 3 mps 754 mmHg 77%

Tomorrow, 15 August, Saturday

Time Temperature Precipitation Wind Pressure Humidity
00:00 +26°C° 0 mm 2 mps 754 mmHg 79%
01:00 +25°C° 0 mm 2 mps 754 mmHg 81%
02:00 +25°C° 0 mm 2 mps 754 mmHg 81%
03:00 +25°C° 0 mm 2 mps 754 mmHg 81%
04:00 +25°C° 0 mm 2 mps 754 mmHg 81%
05:00 +25°C° 0 mm 2 mps 754 mmHg 81%
06:00 +25°C° 0 mm 1 mps 754 mmHg 81%
07:00 +25°C° 0 mm 1 mps 754 mmHg 80%
08:00 +27°C° 0 mm 1 mps 754 mmHg 74%
09:00 +28°C° 0 mm 2 mps 755 mmHg 67%
10:00 +30°C° 0 mm 2 mps 755 mmHg 60%
11:00 +30°C° 0 mm 2 mps 754 mmHg 57%
12:00 +31°C° 0 mm 2 mps 754 mmHg 53%
13:00 +32°C° 0 mm 2 mps 753 mmHg 50%
14:00 +32°C° 0 mm 2 mps 752 mmHg 50%
15:00 +32°C° 0 mm 2 mps 752 mmHg 51%
16:00 +31°C° 0 mm 2 mps 751 mmHg 51%
17:00 +31°C° 0 mm 2 mps 751 mmHg 54%
18:00 +30°C° 0 mm 2 mps 752 mmHg 57%
19:00 +29°C° 0 mm 2 mps 752 mmHg 61%
20:00 +28°C° 0 mm 2 mps 753 mmHg 64%
21:00 +27°C° 0 mm 2 mps 753 mmHg 68%
22:00 +27°C° 0 mm 3 mps 753 mmHg 71%
23:00 +26°C° 0 mm 2 mps 753 mmHg 75%

Day after tomorrow, 16 August, Sunday

Time Temperature Precipitation Wind Pressure Humidity
00:00 +25°C° 0 mm 2 mps 753 mmHg 79%
01:00 +24°C° 0 mm 2 mps 753 mmHg 82%
02:00 +24°C° 0 mm 1 mps 753 mmHg 83%
03:00 +24°C° 0 mm 1 mps 753 mmHg 84%
04:00 +24°C° 0 mm 1 mps 753 mmHg 86%
05:00 +24°C° 0 mm 1 mps 753 mmHg 84%
06:00 +24°C° 0 mm 1 mps 754 mmHg 82%
07:00 +24°C° 0 mm 1 mps 754 mmHg 81%
08:00 +25°C° 0 mm 1 mps 754 mmHg 78%
09:00 +26°C° 0 mm 1 mps 754 mmHg 75%
10:00 +26°C° 0 mm 1 mps 755 mmHg 73%
11:00 +28°C° 0 mm 1 mps 754 mmHg 64%
12:00 +30°C° 0 mm 1 mps 754 mmHg 56%
13:00 +34°C° 0 mm 2 mps 753 mmHg 48%
14:00 +34°C° 0 mm 2 mps 752 mmHg 48%
15:00 +34°C° 0 mm 2 mps 752 mmHg 48%
16:00 +34°C° 0 mm 2 mps 751 mmHg 48%
17:00 +31°C° 0 mm 2 mps 752 mmHg 52%
18:00 +30°C° 0 mm 2 mps 752 mmHg 56%
19:00 +29°C° 0 mm 2 mps 752 mmHg 60%
20:00 +28°C° 0 mm 2 mps 753 mmHg 64%
21:00 +27°C° 0 mm 2 mps 753 mmHg 68%
22:00 +26°C° 0 mm 2 mps 754 mmHg 73%
23:00 +26°C° 0 mm 2 mps 754 mmHg 75%

17 August, Monday

Time Temperature Precipitation Wind Pressure Humidity
00:00 +25°C° 0 mm 2 mps 754 mmHg 78%
01:00 +24°C° 0 mm 1 mps 754 mmHg 81%
02:00 +24°C° 0 mm 1 mps 754 mmHg 81%
03:00 +24°C° 0 mm 1 mps 753 mmHg 81%
04:00 +24°C° 0 mm 1 mps 753 mmHg 81%
05:00 +24°C° 0 mm 1 mps 753 mmHg 80%
06:00 +25°C° 0 mm 1 mps 753 mmHg 80%
07:00 +25°C° 0 mm 1 mps 754 mmHg 79%
08:00 +25°C° 0 mm 1 mps 754 mmHg 76%
09:00 +26°C° 0 mm 1 mps 754 mmHg 73%
10:00 +27°C° 0 mm 1 mps 755 mmHg 71%
11:00 +27°C° 0 mm 1 mps 754 mmHg 67%
12:00 +28°C° 0 mm 1 mps 754 mmHg 64%
13:00 +29°C° 0 mm 1 mps 754 mmHg 61%
14:00 +29°C° 0 mm 1 mps 753 mmHg 61%
15:00 +29°C° 0 mm 2 mps 752 mmHg 60%
16:00 +29°C° 0 mm 2 mps 752 mmHg 60%
17:00 +29°C° 0 mm 2 mps 752 mmHg 63%
18:00 +28°C° 0 mm 2 mps 753 mmHg 66%
19:00 +27°C° 0 mm 2 mps 753 mmHg 69%
20:00 +27°C° 0 mm 2 mps 754 mmHg 72%
21:00 +26°C° 0 mm 2 mps 754 mmHg 74%
22:00 +25°C° 0 mm 2 mps 755 mmHg 77%
23:00 +25°C° 0 mm 2 mps 755 mmHg 79%

18 August, Tuesday

Time Temperature Precipitation Wind Pressure Humidity
00:00 +25°C° 0 mm 2 mps 755 mmHg 81%
01:00 +24°C° 0 mm 2 mps 754 mmHg 83%
02:00 +24°C° 0 mm 2 mps 754 mmHg 82%
03:00 +24°C° 0 mm 2 mps 754 mmHg 82%
04:00 +24°C° 0 mm 2 mps 754 mmHg 81%
05:00 +24°C° 0 mm 2 mps 754 mmHg 81%
06:00 +24°C° 0 mm 2 mps 754 mmHg 81%
07:00 +24°C° 0 mm 1 mps 754 mmHg 81%
08:00 +26°C° 0 mm 1 mps 755 mmHg 72%
09:00 +28°C° 0 mm 1 mps 755 mmHg 64%
10:00 +30°C° 0 mm 1 mps 755 mmHg 56%
11:00 +32°C° 0 mm 1 mps 754 mmHg 51%
12:00 +34°C° 0 mm 1 mps 753 mmHg 45%
13:00 +36°C° 0 mm 2 mps 752 mmHg 40%
14:00 +36°C° 0 mm 2 mps 752 mmHg 40%
15:00 +36°C° 0 mm 2 mps 751 mmHg 41%
16:00 +36°C° 0 mm 2 mps 750 mmHg 41%
17:00 +34°C° 0 mm 2 mps 750 mmHg 46%
18:00 +32°C° 0 mm 2 mps 751 mmHg 51%
19:00 +30°C° 0 mm 2 mps 751 mmHg 55%
20:00 +29°C° 0 mm 3 mps 752 mmHg 61%
21:00 +27°C° 0 mm 3 mps 752 mmHg 67%
22:00 +26°C° 0 mm 3 mps 753 mmHg 73%
23:00 +26°C° 0 mm 2 mps 753 mmHg 75%

19 August, Wednesday

Time Temperature Precipitation Wind Pressure Humidity
00:00 +25°C° 0 mm 2 mps 753 mmHg 78%
01:00 +24°C° 0 mm 2 mps 753 mmHg 80%
02:00 +24°C° 0 mm 2 mps 753 mmHg 80%
03:00 +25°C° 0 mm 2 mps 753 mmHg 79%
04:00 +25°C° 0 mm 2 mps 752 mmHg 78%
05:00 +25°C° 0 mm 1 mps 753 mmHg 79%
06:00 +25°C° 0 mm 1 mps 753 mmHg 79%
07:00 +25°C° 0 mm 1 mps 753 mmHg 79%
08:00 +26°C° 0 mm 1 mps 753 mmHg 74%
09:00 +27°C° 0 mm 1 mps 754 mmHg 69%
10:00 +28°C° 0 mm 1 mps 754 mmHg 64%
11:00 +29°C° 0 mm 1 mps 753 mmHg 61%
12:00 +30°C° 0 mm 1 mps 753 mmHg 57%
13:00 +31°C° 0 mm 2 mps 752 mmHg 53%
14:00 +30°C° 0 mm 2 mps 751 mmHg 54%
15:00 +30°C° 0 mm 2 mps 751 mmHg 55%
16:00 +30°C° 0 mm 2 mps 750 mmHg 55%
17:00 +29°C° 0 mm 2 mps 751 mmHg 58%
18:00 +29°C° 0 mm 2 mps 751 mmHg 61%
19:00 +28°C° 0 mm 2 mps 751 mmHg 64%
20:00 +27°C° 0 mm 2 mps 752 mmHg 67%
21:00 +26°C° 0 mm 2 mps 752 mmHg 71%
22:00 +25°C° 0 mm 2 mps 752 mmHg 74%
23:00 +25°C° 0 mm 2 mps 752 mmHg 77%
Show more